Location: Ailly
(50.0793°N, 1.9944°E)
Time: 00:54:27
(UTC+00:00)

Cosmos 1844 Rocket - Pass Details

Date: 15 January 2026
Orbit: 822 x 845 km, 71.0° (Epoch: 6 February)

Event Time Altitude Azimuth Distance (km) Brightness Sun altitude
Exits shadow 04:30:42 23° 6° (N) 1,718 4.3 -30.5°
Drops below altitude 10° 04:33:02 10° 20° (NNE) 2,475 5.3 -30.1°
Sets 04:35:39 0° 27° (NNE) 3,415 6.2 -29.7°
